Del Rio, TX

10:18 AM CST on January 17, 2017 (GMT -0600)
Del Rio International

Weather History for KDRT - October, 2011

Change the Weather History Date:

Sunday, October 16, 2011

  Actual Average Record
Temperature  
Mean Temperature 75 °F 72 °F  
Max Temperature 87 °F 83 °F 95 °F (1962)
Min Temperature 62 °F 61 °F 41 °F (1974)
Degree Days  
Heating Degree Days 0 1  
Month to date heating degree days 0 2  
Since 1 July heating degree days 0 3  
Cooling Degree Days 10 7  
Month to date cooling degree days 173 148  
Year to date cooling degree days 4115 3243  
Growing Degree Days 24 (Base 50)    
Moisture  
Dew Point 58 °F    
Average Humidity 64    
Maximum Humidity 93    
Minimum Humidity 35    
Precipitation  
Precipitation 0.00 in 0.08 in 0.96 in (1912)
Month to date precipitation 0.39 1.36  
Year to date precipitation 8.19 17.07  
Sea Level Pressure  
Sea Level Pressure 29.98 in    
Wind  
Wind Speed 8 mph (ESE)    
Max Wind Speed 18 mph    
Max Gust Speed 22 mph    
Visibility 10 miles    
Events      
T = Trace of Precipitation, MM = Missing Value Source: NWS Daily Summary

Daily Weather History Graph

Daily Weather History Graph

Search for Another Location

Airport or City:

Trip Planner

Search our weather history database for the weather conditions in past years. The results will help you decide how hot, cold, wet, or windy it might be!

Date:

Astronomy

Oct. 16, 2011 Rise Set
Actual Time 7:45 AM CDT 7:12 PM CDT
Civil Twilight 7:21 AM CDT 7:36 PM CDT
Nautical Twilight 6:53 AM CDT 8:04 PM CDT
Astronomical Twilight 6:26 AM CDT 8:31 PM CDT
Moon 10:19 PM CDT (10/16) 11:45 AM CDT (10/16)
Length of Visible Light 12h 14m
Length of Day
11h 26m
Waning Gibbous, 82% of the Moon is Illuminated
Oct 16
Waning Gibbous
Oct 19
Last Quarter
Oct 26
New
Nov 2
First Quarter
Nov 10
Full

Hourly Weather History & Observations

Time (CDT) Temp. Heat Index Dew Point Humidity Pressure Visibility Wind Dir Wind Speed Gust Speed Precip Events Conditions
12:53 AM 69.1 °F - 54.0 °F 58% 30.00 in 10.0 mi ESE 3.5 mph - N/A   Clear
1:53 AM 66.0 °F - 54.0 °F 65% 30.01 in 10.0 mi Calm Calm - N/A   Clear
2:53 AM 64.9 °F - 55.0 °F 70% 30.01 in 10.0 mi East 3.5 mph - N/A   Clear
3:53 AM 64.0 °F - 55.9 °F 75% 30.01 in 10.0 mi East 4.6 mph - N/A   Clear
4:53 AM 64.0 °F - 57.9 °F 80% 30.00 in 10.0 mi East 5.8 mph - N/A   Clear
5:53 AM 62.6 °F - 59.0 °F 88% 30.05 in 10.0 mi East 6.9 mph - N/A   Clear
6:53 AM 62.1 °F - 60.1 °F 93% 30.02 in 10.0 mi East 4.6 mph - N/A   Clear
7:53 AM 62.1 °F - 61.0 °F 96% 30.03 in 10.0 mi East 6.9 mph - N/A   Clear
8:53 AM 66.0 °F - 62.1 °F 87% 30.04 in 10.0 mi East 6.9 mph - N/A   Partly Cloudy
9:08 AM 66.2 °F - 62.6 °F 88% 30.08 in 10.0 mi East 5.8 mph - N/A   Mostly Cloudy
9:53 AM 71.1 °F - 63.0 °F 75% 30.05 in 10.0 mi ESE 8.1 mph - N/A   Partly Cloudy
10:53 AM 73.0 °F - 63.0 °F 71% 30.05 in 10.0 mi SSE 8.1 mph - N/A   Clear
11:53 AM 77.0 °F - 64.0 °F 64% 30.04 in 10.0 mi SE 9.2 mph - N/A   Clear
12:53 PM 80.1 °F 81.2 °F 62.1 °F 54% 30.02 in 10.0 mi SE 10.4 mph 18.4 mph N/A   Clear
1:53 PM 82.9 °F 83.2 °F 60.1 °F 46% 29.98 in 10.0 mi SSE 10.4 mph 20.7 mph N/A   Clear
2:53 PM 84.0 °F 83.5 °F 57.9 °F 41% 29.94 in 10.0 mi SSE 10.4 mph - N/A   Clear
3:53 PM 86.0 °F 84.5 °F 55.0 °F 35% 29.92 in 10.0 mi SSE 12.7 mph 19.6 mph N/A   Clear
4:53 PM 86.0 °F 84.5 °F 55.0 °F 35% 29.90 in 10.0 mi SE 9.2 mph - N/A   Clear
5:53 PM 84.9 °F 83.6 °F 55.0 °F 36% 29.90 in 10.0 mi SE 10.4 mph 18.4 mph N/A   Clear
6:53 PM 82.9 °F 82.1 °F 55.9 °F 39% 29.89 in 10.0 mi ESE 8.1 mph - N/A   Clear
7:53 PM 80.1 °F 80.2 °F 55.9 °F 43% 29.90 in 10.0 mi ESE 6.9 mph - N/A   Clear
8:53 PM 78.1 °F - 55.9 °F 46% 29.91 in 10.0 mi ESE 8.1 mph - N/A   Clear
9:53 PM 77.0 °F - 57.0 °F 50% 29.91 in 10.0 mi ESE 6.9 mph - N/A   Clear
10:53 PM 73.9 °F - 57.9 °F 57% 29.92 in 10.0 mi ESE 5.8 mph - N/A   Clear
11:53 PM 72.0 °F - 57.9 °F 61% 29.92 in 10.0 mi ESE 5.8 mph - N/A   Clear